Regional Weather Roundup
Issued by NWS Green Bay, WI

Home | Current Version | Previous Version | Text Only | Print | Product List | Glossary On
Versions: 1 2 3 4 5 6 7 8 9 10 11 12 13 14 15 16 17 18 19 20 21 22 23 24 25 26 27 28 29 30 31 32 33 34 35 36 37 38 39 40 41 42 43 44 45 46 47 48 49 50
000
ASUS43 KGRB 280111
RWRGRB

NORTH-CENTRAL AND NORTHEAST WISCONSIN REGIONAL WEATHER ROUNDUP
NATIONAL WEATHER SERVICE GREEN BAY WI
800 PM CDT SAT AUG 27 2016

WIZ005-009-010>012-018-019-280200-
NORTH CENTRAL WISCONSIN

CITY           SKY/WX    TMP DP  RH WIND       PRES   REMARKS
IRONWOOD       CLOUDY    61  61 100 E6        30.04S
MANITOWISH WTR CLOUDY    62  62 100 CALM      30.05R
ARBOR VITAE    CLOUDY    63  61  94 CALM      30.05S
EAGLE RIVER    RAIN      63  57  83 W5        30.06R
LAND O LAKES   HVY RAIN  63  60  90 CALM      30.07R
RHINELANDER    LGT RAIN  64  62  93 CALM      30.06R
PHILLIPS       DRIZZLE   62  62  99 SW3       30.04R
ANTIGO         CLOUDY    62  60  96 CALM      30.06S
TOMAHAWK       CLOUDY    62  60  94 CALM      30.06R
MERRILL        CLOUDY    64  62  94 S5        30.06R
$$

WIZ013-073-280200-
NORTHEAST WISCONSIN

CITY           SKY/WX    TMP DP  RH WIND       PRES   REMARKS
IRON MOUNTAIN  CLOUDY    64  58  80 S3        30.04F
MARINETTE      CLOUDY   N/A N/A N/A CALM      30.05F
OCONTO         CLOUDY    64  62  91 CALM      30.04S
$$

WIZ017-030-035>037-045-280200-
CENTRAL WISCONSIN

CITY           SKY/WX    TMP DP  RH WIND       PRES   REMARKS
MEDFORD        CLOUDY    62  62 100 S6        30.05S FOG
WAUSAU         CLOUDY    63  61  93 S8        30.04S
MOSINEE        CLOUDY    63  63 100 SE5       30.06S
MARSHFIELD     CLOUDY    65  61  87 S6        30.04S FOG
WISC RAPIDS    CLOUDY    64  64 100 CALM      30.06S
STEVENS POINT  CLOUDY    61  61 100 SE3       30.06S FOG
WAUPACA        CLOUDY    67  65  96 CALM      30.06R
SHAWANO        CLOUDY    66  62  87 CALM      30.05F
CLINTONVILLE   CLOUDY    64  61  88 CALM      30.05S
WAUTOMA        CLOUDY    65  63  93 CALM      30.07R
$$

WIZ038-039-048-051-280200-
FOX VALLEY

CITY           SKY/WX    TMP DP  RH WIND       PRES   REMARKS
NWS GREEN BAY  CLOUDY    65  65 100 CALM      30.05R
APPLETON       CLOUDY    64  64 100 VRB5      30.04R
OSHKOSH        CLOUDY    66  64  93 CALM      30.05R
FOND DU LAC    CLOUDY    67  65  93 CALM      30.05R
$$

WIZ022-050-052-280200-
EAST CENTRAL WISCONSIN

CITY           SKY/WX    TMP DP  RH WIND       PRES   REMARKS
EPHRAIM        DRIZZLE   63  63 100 CALM      30.04S
WASHINGTON ISL NOT AVBL
STURGEON BAY   CLOUDY    64  63  96 CALM      30.05S FOG
MANITOWOC      CLOUDY    64  63  96 N5        30.05R FOG
SHEBOYGAN      CLOUDY    65  64  97 E3        30.05R FOG
$$

LMZ563-521-522-541>543-280200-
LAKESHORE

STATION/POSITION TIME  TEMP    WIND        PRES    VSBY  WAVE
                       AIR SEA DIR/SP/G                  HT/PER
                 (UTC) (F)     (DEG/KT/KT) (MB)    (MI)  (FT/S)
SHEBOYGAN LKSHOR 0100   61     360/  7/  7 1017.1R
KEWAUNEE LKSHORE 0000   62      10/  5/  9 1016.7R
NORTHPORT PIER   0000   66      70/  6/  7 1017.3R
N MID LAKE BUOY  0050   66 70   60/  4/  6 1016.4F         1/ 3
S GREEN BAY BUOY 0030   65 71   60/  6/  8 1017.0R
SISTER BAY LKSHO 0007   65     110/  2/  4   N/A
CHAMBERS ISLAND  0040   66      40/  3/  3 1017.3R
MENOMINEE LKSHOR 0000   66      10/  5/  5 1016.7R
$$



USA.gov is the U.S. government's official web portal to all federal, state and local government web resources and services.